Time,TemperatureF,DewpointF,PressureIn,WindDirection,WindDirectionDegrees,WindSpeedMPH,WindSpeedGustMPH,Humidity,HourlyPrecipIn,Conditions,Clouds,dailyrainin,SoftwareType,DateUTC
2013-03-05 00:02:00,22.3,-1.8,21.11,WNW,289,23.3,23.3,34,0.00,,---,0.00,VWS V14.01,2013-03-05 07:02:00,
2013-03-05 00:07:00,22.1,-2.0,21.11,WNW,297,19.2,23.3,34,0.00,,---,0.00,VWS V14.01,2013-03-05 07:07:00,
2013-03-05 00:12:00,22.1,-2.0,21.11,WNW,294,19.7,19.7,34,0.00,,---,0.00,VWS V14.01,2013-03-05 07:12:00,
2013-03-05 00:17:00,21.9,-2.1,21.11,West,280,19.7,19.7,34,0.00,,---,0.00,VWS V14.01,2013-03-05 07:17:00,
2013-03-05 00:22:00,21.9,-1.5,21.11,WNW,287,13.2,13.2,35,0.00,,---,0.00,VWS V14.01,2013-03-05 07:22:00,
2013-03-05 00:27:00,21.7,-1.7,21.11,WNW,296,17.4,17.4,35,0.00,,---,0.00,VWS V14.01,2013-03-05 07:27:00,
2013-03-05 00:32:00,21.7,-1.7,21.11,WNW,287,17.4,23.7,35,0.00,,---,0.00,VWS V14.01,2013-03-05 07:32:00,
2013-03-05 00:37:00,21.7,-1.7,21.11,WNW,295,19.7,19.7,35,0.00,,---,0.00,VWS V14.01,2013-03-05 07:37:00,
2013-03-05 00:42:00,21.7,-1.7,21.11,WNW,284,25.7,25.7,35,0.00,,---,0.00,VWS V14.01,2013-03-05 07:42:00,
2013-03-05 00:47:00,21.7,-1.7,21.11,WNW,302,24.2,24.2,35,0.00,,---,0.00,VWS V14.01,2013-03-05 07:47:00,
2013-03-05 00:52:00,21.7,-1.7,21.11,WNW,302,26.6,26.6,35,0.00,,---,0.00,VWS V14.01,2013-03-05 07:52:00,
2013-03-05 00:57:00,21.7,-2.3,21.11,WNW,293,19.7,19.7,34,0.00,,---,0.00,VWS V14.01,2013-03-05 07:57:00,
2013-03-05 01:02:00,21.7,-2.3,21.11,WNW,292,20.6,20.6,34,0.00,,---,0.00,VWS V14.01,2013-03-05 08:02:00,
2013-03-05 01:07:00,21.9,-2.1,21.11,WNW,298,25.1,25.1,34,0.00,,---,0.00,VWS V14.01,2013-03-05 08:07:00,
2013-03-05 01:12:00,21.9,-2.1,21.11,WNW,300,21.5,21.5,34,0.00,,---,0.00,VWS V14.01,2013-03-05 08:12:00,
2013-03-05 01:17:00,21.7,-2.3,21.11,WNW,300,21.5,21.5,34,0.00,,---,0.00,VWS V14.01,2013-03-05 08:17:00,
2013-03-05 01:22:00,21.7,-2.3,21.11,WNW,290,25.7,25.7,34,0.00,,---,0.00,VWS V14.01,2013-03-05 08:22:00,
2013-03-05 01:27:00,21.7,-2.3,21.11,West,280,20.6,20.6,34,0.00,,---,0.00,VWS V14.01,2013-03-05 08:27:00,
2013-03-05 01:32:00,21.7,-2.3,21.11,WNW,291,17.4,22.8,34,0.00,,---,0.00,VWS V14.01,2013-03-05 08:32:00,
2013-03-05 01:37:00,21.6,-2.5,21.11,West,267,15.0,22.4,34,0.00,,---,0.00,VWS V14.01,2013-03-05 08:37:00,
2013-03-05 01:42:00,21.6,-2.5,21.11,WNW,288,20.1,20.1,34,0.00,,---,0.00,VWS V14.01,2013-03-05 08:42:00,
2013-03-05 01:47:00,21.4,-2.6,21.11,WNW,298,17.4,17.4,34,0.00,,---,0.00,VWS V14.01,2013-03-05 08:47:00,
2013-03-05 01:52:00,21.2,-2.8,21.11,WNW,300,13.2,18.3,34,0.00,,---,0.00,VWS V14.01,2013-03-05 08:52:00,
2013-03-05 01:57:00,21.2,-2.2,21.11,WNW,299,16.3,16.3,35,0.00,,---,0.00,VWS V14.01,2013-03-05 08:57:00,
2013-03-05 02:02:00,21.0,-2.3,21.11,WNW,301,17.4,17.4,35,0.00,,---,0.00,VWS V14.01,2013-03-05 09:02:00,
2013-03-05 02:07:00,21.0,-2.3,21.11,WNW,300,15.9,15.9,35,0.00,,---,0.00,VWS V14.01,2013-03-05 09:07:00,
2013-03-05 02:12:00,20.8,-2.5,21.11,NW,305,17.9,18.3,35,0.00,,---,0.00,VWS V14.01,2013-03-05 09:12:00,
2013-03-05 02:17:00,20.8,-2.5,21.11,WNW,286,15.4,17.4,35,0.00,,---,0.00,VWS V14.01,2013-03-05 09:17:00,
2013-03-05 02:22:00,20.7,-2.7,21.11,WNW,303,16.3,16.8,35,0.00,,---,0.00,VWS V14.01,2013-03-05 09:22:00,
2013-03-05 02:27:00,20.7,-2.7,21.11,NW,311,15.9,17.0,35,0.00,,---,0.00,VWS V14.01,2013-03-05 09:27:00,
2013-03-05 02:32:00,20.7,-2.1,21.11,WNW,290,17.0,17.9,36,0.00,,---,0.00,VWS V14.01,2013-03-05 09:32:00,
2013-03-05 02:37:00,20.7,-2.1,21.11,WNW,297,17.4,18.3,36,0.00,,---,0.00,VWS V14.01,2013-03-05 09:37:00,
2013-03-05 02:42:00,20.5,-2.2,21.11,WNW,294,17.4,21.0,36,0.00,,---,0.00,VWS V14.01,2013-03-05 09:42:00,
2013-03-05 02:47:00,20.5,-2.2,21.11,WNW,291,13.6,13.6,36,0.00,,---,0.00,VWS V14.01,2013-03-05 09:47:00,
2013-03-05 02:52:00,20.5,-2.2,21.11,WNW,294,16.8,19.7,36,0.00,,---,0.00,VWS V14.01,2013-03-05 09:52:00,
2013-03-05 02:57:00,20.5,-2.2,21.11,NW,308,11.9,11.9,36,0.00,,---,0.00,VWS V14.01,2013-03-05 09:57:00,
2013-03-05 03:02:00,20.3,-1.8,21.11,WNW,289,15.0,19.2,37,0.00,,---,0.00,VWS V14.01,2013-03-05 10:02:00,
2013-03-05 03:07:00,20.3,-1.8,21.11,WNW,300,20.1,20.6,37,0.00,,---,0.00,VWS V14.01,2013-03-05 10:07:00,
2013-03-05 03:12:00,20.3,-1.8,21.11,WNW,296,21.5,22.4,37,0.00,,---,0.00,VWS V14.01,2013-03-05 10:12:00,
2013-03-05 03:17:00,20.3,-1.8,21.11,WNW,288,14.1,18.8,37,0.00,,---,0.00,VWS V14.01,2013-03-05 10:17:00,
2013-03-05 03:22:00,20.3,-1.8,21.11,West,268,12.8,14.5,37,0.00,,---,0.00,VWS V14.01,2013-03-05 10:22:00,
2013-03-05 03:27:00,20.1,-2.0,21.11,West,281,19.2,19.2,37,0.00,,---,0.00,VWS V14.01,2013-03-05 10:27:00,
2013-03-05 03:32:00,19.9,-2.1,21.11,West,273,12.8,14.1,37,0.00,,---,0.00,VWS V14.01,2013-03-05 10:32:00,
2013-03-05 03:37:00,19.8,-1.7,21.11,West,278,15.4,15.4,38,0.00,,---,0.00,VWS V14.01,2013-03-05 10:37:00,
2013-03-05 03:42:00,19.8,-1.7,21.11,West,277,15.4,15.4,38,0.00,,---,0.00,VWS V14.01,2013-03-05 10:42:00,
2013-03-05 03:47:00,19.8,-1.7,21.11,West,270,17.4,17.4,38,0.00,,---,0.00,VWS V14.01,2013-03-05 10:47:00,
2013-03-05 03:52:00,19.8,-1.7,21.11,WSW,251,15.9,15.9,38,0.00,,---,0.00,VWS V14.01,2013-03-05 10:52:00,
2013-03-05 03:57:00,19.8,-1.2,21.11,WNW,283,17.4,17.4,39,0.00,,---,0.00,VWS V14.01,2013-03-05 10:57:00,
2013-03-05 04:02:00,19.6,-1.3,21.11,WNW,295,20.6,20.6,39,0.00,,---,0.00,VWS V14.01,2013-03-05 11:02:00,
2013-03-05 04:07:00,19.6,-1.3,21.11,WNW,285,17.4,17.4,39,0.00,,---,0.00,VWS V14.01,2013-03-05 11:07:00,
2013-03-05 04:12:00,19.6,-1.3,21.11,WNW,293,15.4,15.4,39,0.00,,---,0.00,VWS V14.01,2013-03-05 11:12:00,
2013-03-05 04:17:00,19.6,-1.3,21.11,WNW,288,24.2,24.2,39,0.00,,---,0.00,VWS V14.01,2013-03-05 11:17:00,
2013-03-05 04:22:00,19.6,-1.3,21.11,WNW,302,15.9,15.9,39,0.00,,---,0.00,VWS V14.01,2013-03-05 11:22:00,
2013-03-05 04:27:00,19.4,-1.0,21.11,West,281,15.0,15.4,40,0.00,,---,0.00,VWS V14.01,2013-03-05 11:27:00,
2013-03-05 04:32:00,19.4,-1.0,21.11,WNW,300,17.9,17.9,40,0.00,,---,0.00,VWS V14.01,2013-03-05 11:32:00,
2013-03-05 04:37:00,19.4,-1.0,21.11,WNW,298,21.5,21.5,40,0.00,,---,0.00,VWS V14.01,2013-03-05 11:37:00,
2013-03-05 04:42:00,19.4,-0.4,21.11,NW,305,17.4,19.7,41,0.00,,---,0.00,VWS V14.01,2013-03-05 11:42:00,
2013-03-05 04:47:00,19.2,-0.6,21.11,WNW,296,20.6,20.6,41,0.00,,---,0.00,VWS V14.01,2013-03-05 11:47:00,
2013-03-05 04:52:00,19.2,-0.6,21.11,WNW,299,19.7,19.7,41,0.00,,---,0.00,VWS V14.01,2013-03-05 11:52:00,
2013-03-05 04:57:00,19.2,-0.6,21.11,WNW,303,17.4,17.4,41,0.00,,---,0.00,VWS V14.01,2013-03-05 11:57:00,
2013-03-05 05:02:00,19.0,-0.8,21.11,WNW,300,15.0,17.9,41,0.00,,---,0.00,VWS V14.01,2013-03-05 12:02:00,
2013-03-05 05:07:00,18.9,-0.9,21.11,WNW,300,13.2,20.1,41,0.00,,---,0.00,VWS V14.01,2013-03-05 12:07:00,
2013-03-05 05:12:00,18.9,-0.9,21.11,WNW,298,15.9,15.9,41,0.00,,---,0.00,VWS V14.01,2013-03-05 12:12:00,
2013-03-05 05:17:00,18.7,-0.6,21.11,WNW,301,15.0,15.0,42,0.00,,---,0.00,VWS V14.01,2013-03-05 12:17:00,
2013-03-05 05:22:00,18.5,-0.8,21.11,NW,313,14.5,14.5,42,0.00,,---,0.00,VWS V14.01,2013-03-05 12:22:00,
2013-03-05 05:27:00,18.3,-0.9,21.11,WNW,298,15.4,15.4,42,0.00,,---,0.00,VWS V14.01,2013-03-05 12:27:00,
2013-03-05 05:33:00,18.3,-0.4,21.11,NW,306,13.2,13.6,43,0.00,,---,0.00,VWS V14.01,2013-03-05 12:33:00,
2013-03-05 05:38:00,18.3,-0.4,21.11,NW,314,15.4,15.4,43,0.00,,---,0.00,VWS V14.01,2013-03-05 12:38:00,
2013-03-05 05:43:00,18.3,-0.4,21.11,NNW,330,15.4,15.4,43,0.00,,---,0.00,VWS V14.01,2013-03-05 12:43:00,
2013-03-05 05:48:00,18.3,-0.4,21.11,WNW,302,13.2,17.4,43,0.00,,---,0.00,VWS V14.01,2013-03-05 12:48:00,
2013-03-05 05:54:00,18.5,-0.3,21.11,NW,318,15.4,18.3,43,0.00,,---,0.00,VWS V14.01,2013-03-05 12:54:00,
2013-03-05 05:59:00,18.5,-0.3,21.11,NW,317,17.4,17.4,43,0.00,,---,0.00,VWS V14.01,2013-03-05 12:59:00,
2013-03-05 06:05:00,18.3,-0.4,21.11,NW,320,15.0,15.0,43,0.00,,---,0.00,VWS V14.01,2013-03-05 13:05:00,
2013-03-05 06:10:00,18.3,-0.4,21.11,NW,324,14.5,17.4,43,0.00,,---,0.00,VWS V14.01,2013-03-05 13:10:00,
2013-03-05 06:16:00,18.3,-0.4,21.11,WNW,302,15.0,15.0,43,0.00,,---,0.00,VWS V14.01,2013-03-05 13:16:00,
2013-03-05 06:22:00,18.3,-0.4,21.11,NW,317,15.0,15.0,43,0.00,,---,0.00,VWS V14.01,2013-03-05 13:22:00,
2013-03-05 06:27:00,18.5,-0.3,21.11,NW,312,12.3,14.5,43,0.00,,---,0.00,VWS V14.01,2013-03-05 13:27:00,
2013-03-05 06:33:00,18.7,-0.1,21.11,WNW,301,7.6,15.0,43,0.00,,---,0.00,VWS V14.01,2013-03-05 13:33:00,
2013-03-05 06:38:00,18.7,-0.1,21.11,WNW,302,8.3,13.2,43,0.00,,---,0.00,VWS V14.01,2013-03-05 13:38:00,
2013-03-05 06:44:00,18.7,-0.1,21.11,WNW,301,13.2,13.2,43,0.00,,---,0.00,VWS V14.01,2013-03-05 13:44:00,
2013-03-05 06:50:00,19.0,0.2,21.11,WNW,289,13.2,13.2,43,0.00,,---,0.00,VWS V14.01,2013-03-05 13:50:00,
2013-03-05 06:55:00,19.2,0.4,21.11,WNW,296,10.1,12.8,43,0.00,,---,0.00,VWS V14.01,2013-03-05 13:55:00,
2013-03-05 07:01:00,19.8,0.9,21.11,NW,316,12.3,15.0,43,0.00,,---,0.00,VWS V14.01,2013-03-05 14:01:00,
2013-03-05 07:06:00,19.9,1.1,21.11,NW,310,15.0,15.4,43,0.00,,---,0.00,VWS V14.01,2013-03-05 14:06:00,
2013-03-05 07:12:00,20.3,0.9,21.11,WNW,296,17.0,17.0,42,0.00,,---,0.00,VWS V14.01,2013-03-05 14:12:00,
2013-03-05 07:18:00,20.7,0.7,21.11,NW,305,12.8,18.8,41,0.00,,---,0.00,VWS V14.01,2013-03-05 14:18:00,
2013-03-05 07:23:00,20.8,0.9,21.11,NNW,327,15.4,17.4,41,0.00,,---,0.00,VWS V14.01,2013-03-05 14:23:00,
2013-03-05 07:29:00,21.2,0.7,21.11,NW,318,15.4,15.4,40,0.00,,---,0.00,VWS V14.01,2013-03-05 14:29:00,
2013-03-05 07:34:00,21.4,0.3,21.11,NW,317,15.0,15.0,39,0.00,,---,0.00,VWS V14.01,2013-03-05 14:34:00,
2013-03-05 07:40:00,21.6,0.4,21.11,NW,310,17.0,19.7,39,0.00,,---,0.00,VWS V14.01,2013-03-05 14:40:00,
2013-03-05 07:46:00,21.9,0.2,21.11,NNW,331,17.4,17.4,38,0.00,,---,0.00,VWS V14.01,2013-03-05 14:46:00,
2013-03-05 07:51:00,22.1,0.4,21.11,NW,307,11.4,15.4,38,0.00,,---,0.00,VWS V14.01,2013-03-05 14:51:00,
2013-03-05 07:57:00,22.5,0.1,21.11,WNW,302,17.9,17.9,37,0.00,,---,0.00,VWS V14.01,2013-03-05 14:57:00,
2013-03-05 08:02:00,22.8,0.5,21.11,NW,311,11.0,11.0,37,0.00,,---,0.00,VWS V14.01,2013-03-05 15:02:00,
2013-03-05 08:08:00,23.2,0.2,21.11,NW,315,17.0,17.4,36,0.00,,---,0.00,VWS V14.01,2013-03-05 15:08:00,
2013-03-05 08:14:00,23.4,-0.2,21.11,NW,324,14.1,17.4,35,0.00,,---,0.00,VWS V14.01,2013-03-05 15:14:00,
2013-03-05 08:19:00,23.9,0.2,21.11,NW,318,16.8,18.8,35,0.00,,---,0.00,VWS V14.01,2013-03-05 15:19:00,
2013-03-05 08:25:00,24.1,0.4,21.11,NNW,333,12.8,12.8,35,0.00,,---,0.00,VWS V14.01,2013-03-05 15:25:00,
2013-03-05 08:30:00,24.6,0.3,21.11,NW,316,8.7,17.4,34,0.00,,---,0.00,VWS V14.01,2013-03-05 15:30:00,
2013-03-05 08:36:00,25.0,-0.1,21.11,NW,318,10.1,10.1,33,0.00,,---,0.00,VWS V14.01,2013-03-05 15:36:00,
2013-03-05 08:41:00,25.3,0.3,21.11,WNW,303,10.1,10.5,33,99.99,,---,99.99,VWS V14.01,2013-03-05 15:41:00,
2013-03-05 08:46:00,25.5,0.4,21.11,NNW,330,11.0,15.4,33,0.00,,---,0.00,VWS V14.01,2013-03-05 15:46:00,
2013-03-05 08:51:00,25.7,0.6,21.11,NNW,327,13.2,13.2,33,0.00,,---,0.00,VWS V14.01,2013-03-05 15:51:00,
2013-03-05 08:56:00,26.1,0.9,21.11,NW,310,13.6,14.5,33,0.00,,---,0.00,VWS V14.01,2013-03-05 15:56:00,
2013-03-05 09:01:00,26.2,0.4,21.11,NW,325,18.8,18.8,32,0.00,,---,0.00,VWS V14.01,2013-03-05 16:01:00,
2013-03-05 09:07:00,26.8,0.9,21.11,NW,324,23.7,23.7,32,0.00,,---,0.00,VWS V14.01,2013-03-05 16:07:00,
2013-03-05 09:12:00,27.0,1.0,21.11,North,353,14.5,14.5,32,0.00,,---,0.00,VWS V14.01,2013-03-05 16:12:00,
2013-03-05 09:18:00,27.1,0.5,21.11,NW,324,18.3,19.7,31,0.00,,---,0.00,VWS V14.01,2013-03-05 16:18:00,
2013-03-05 09:23:00,27.5,0.8,21.11,NW,311,14.1,14.5,31,0.00,,---,0.00,VWS V14.01,2013-03-05 16:23:00,
2013-03-05 09:29:00,27.9,1.8,21.11,NW,316,14.5,15.0,32,0.00,,---,0.00,VWS V14.01,2013-03-05 16:29:00,
2013-03-05 09:35:00,28.6,1.8,21.11,NW,321,15.0,17.9,31,0.00,,---,0.00,VWS V14.01,2013-03-05 16:35:00,
2013-03-05 09:40:00,28.8,2.0,21.11,WNW,296,15.4,15.4,31,0.00,,---,0.00,VWS V14.01,2013-03-05 16:40:00,
2013-03-05 09:46:00,29.1,2.3,21.11,NW,318,15.4,15.4,31,0.00,,---,0.00,VWS V14.01,2013-03-05 16:46:00,
2013-03-05 09:52:00,29.5,2.6,21.11,NNW,327,15.4,19.7,31,0.00,,---,0.00,VWS V14.01,2013-03-05 16:52:00,
2013-03-05 09:57:00,29.8,2.9,21.11,NNW,327,13.2,13.2,31,0.00,,---,0.00,VWS V14.01,2013-03-05 16:57:00,
2013-03-05 10:02:00,30.2,3.2,21.11,NNW,340,13.2,13.2,31,0.00,,---,0.00,VWS V14.01,2013-03-05 17:02:00,
2013-03-05 10:07:00,30.4,2.7,21.11,WNW,285,15.4,17.4,30,0.00,,---,0.00,VWS V14.01,2013-03-05 17:07:00,
2013-03-05 10:12:00,30.7,3.0,21.11,NW,306,22.4,22.4,30,0.00,,---,0.00,VWS V14.01,2013-03-05 17:12:00,
2013-03-05 10:18:00,30.9,3.1,21.11,WNW,303,17.4,17.4,30,0.00,,---,0.00,VWS V14.01,2013-03-05 17:18:00,
2013-03-05 10:23:00,31.3,3.5,21.11,NNW,330,23.7,23.7,30,0.00,,---,0.00,VWS V14.01,2013-03-05 17:23:00,
2013-03-05 10:28:00,31.3,3.5,21.11,NW,319,13.2,13.2,30,0.00,,---,0.00,VWS V14.01,2013-03-05 17:28:00,
2013-03-05 10:33:00,31.6,2.3,21.11,NW,325,12.3,15.0,28,0.00,,---,0.00,VWS V14.01,2013-03-05 17:33:00,
2013-03-05 10:39:00,31.8,2.4,21.11,WNW,283,12.8,12.8,28,0.00,,---,0.00,VWS V14.01,2013-03-05 17:39:00,
2013-03-05 10:45:00,32.2,2.8,21.11,NW,322,19.2,19.2,28,0.00,,---,0.00,VWS V14.01,2013-03-05 17:45:00,
2013-03-05 10:50:00,32.5,0.6,21.11,NNW,340,19.7,19.7,25,0.00,,---,0.00,VWS V14.01,2013-03-05 17:50:00,
2013-03-05 10:56:00,32.9,0.9,21.11,NW,322,17.4,17.4,25,0.00,,---,0.00,VWS V14.01,2013-03-05 17:56:00,
2013-03-05 11:01:00,33.3,1.2,21.11,NW,308,12.8,12.8,25,0.00,,---,0.00,VWS V14.01,2013-03-05 18:01:00,
2013-03-05 11:07:00,33.3,1.2,21.11,NW,315,8.7,8.7,25,0.00,,---,0.00,VWS V14.01,2013-03-05 18:07:00,
2013-03-05 11:13:00,33.4,-0.4,21.11,WNW,290,10.5,17.4,23,0.00,,---,0.00,VWS V14.01,2013-03-05 18:13:00,
2013-03-05 11:18:00,33.8,-1.0,21.11,WNW,292,13.2,13.2,22,0.00,,---,0.00,VWS V14.01,2013-03-05 18:18:00,
2013-03-05 11:24:00,34.0,-0.9,21.11,NW,311,17.4,17.4,22,0.00,,---,0.00,VWS V14.01,2013-03-05 18:24:00,
2013-03-05 11:30:00,34.0,-0.9,21.11,NW,326,15.4,15.4,22,0.00,,---,0.00,VWS V14.01,2013-03-05 18:30:00,
2013-03-05 11:35:00,34.3,-0.6,21.11,NW,305,11.4,13.2,22,0.00,,---,0.00,VWS V14.01,2013-03-05 18:35:00,
2013-03-05 11:41:00,34.3,-0.6,21.11,NNW,328,10.5,17.4,22,0.00,,---,0.00,VWS V14.01,2013-03-05 18:41:00,
2013-03-05 11:46:00,34.3,-0.6,21.11,NW,312,15.0,15.4,22,0.00,,---,0.00,VWS V14.01,2013-03-05 18:46:00,
2013-03-05 11:51:00,34.7,-2.3,21.11,NW,317,15.4,16.3,20,0.00,,---,0.00,VWS V14.01,2013-03-05 18:51:00,
2013-03-05 11:56:00,35.1,-2.0,21.11,NNW,328,12.8,12.8,20,0.00,,---,0.00,VWS V14.01,2013-03-05 18:56:00,
2013-03-05 12:02:00,35.4,-1.6,21.11,NW,311,11.0,15.0,20,0.00,,---,0.00,VWS V14.01,2013-03-05 19:02:00,
2013-03-05 12:07:00,35.6,-2.6,21.11,WNW,302,11.0,11.9,19,0.00,,---,0.00,VWS V14.01,2013-03-05 19:07:00,
2013-03-05 12:13:00,35.6,-2.6,21.11,NW,312,12.3,12.3,19,0.00,,---,0.00,VWS V14.01,2013-03-05 19:13:00,
2013-03-05 12:19:00,35.6,-2.6,21.11,NW,313,13.2,13.2,19,0.00,,---,0.00,VWS V14.01,2013-03-05 19:19:00,
2013-03-05 12:25:00,35.6,-2.6,21.11,NW,316,13.2,13.2,19,0.00,,---,0.00,VWS V14.01,2013-03-05 19:25:00,
2013-03-05 12:31:00,35.8,-2.4,21.11,NNW,337,14.5,14.5,19,0.00,,---,0.00,VWS V14.01,2013-03-05 19:31:00,
2013-03-05 12:36:00,35.8,-2.4,21.11,WNW,303,8.1,8.1,19,0.00,,---,0.00,VWS V14.01,2013-03-05 19:36:00,
2013-03-05 12:41:00,36.1,-2.1,21.11,NNW,330,10.5,10.5,19,0.00,,---,0.00,VWS V14.01,2013-03-05 19:41:00,
2013-03-05 12:47:00,36.3,-2.0,21.11,NNW,327,13.2,15.4,19,0.00,,---,0.00,VWS V14.01,2013-03-05 19:47:00,
2013-03-05 12:52:00,36.3,-2.0,21.11,WNW,302,8.7,13.2,19,0.00,,---,0.00,VWS V14.01,2013-03-05 19:52:00,
2013-03-05 12:58:00,36.5,-1.8,21.11,NW,325,12.8,12.8,19,0.00,,---,0.00,VWS V14.01,2013-03-05 19:58:00,
2013-03-05 13:03:00,36.7,-1.7,21.11,NNW,345,8.1,8.1,19,0.00,,---,0.00,VWS V14.01,2013-03-05 20:03:00,
2013-03-05 13:09:00,36.9,-1.5,21.11,NW,310,6.3,10.5,19,0.00,,---,0.00,VWS V14.01,2013-03-05 20:09:00,
2013-03-05 13:15:00,36.9,-3.9,21.11,NNW,340,13.2,13.2,17,0.00,,---,0.00,VWS V14.01,2013-03-05 20:15:00,
2013-03-05 13:20:00,37.0,-3.7,21.11,NNW,336,7.2,8.3,17,0.00,,---,0.00,VWS V14.01,2013-03-05 20:20:00,
2013-03-05 13:26:00,37.4,-4.7,21.11,NNW,332,10.1,10.1,16,0.00,,---,0.00,VWS V14.01,2013-03-05 20:26:00,
2013-03-05 13:31:00,37.6,-4.5,21.11,NW,312,13.2,13.2,16,0.00,,---,0.00,VWS V14.01,2013-03-05 20:31:00,
2013-03-05 13:37:00,37.8,-4.4,21.11,North,353,13.2,15.0,16,0.00,,---,0.00,VWS V14.01,2013-03-05 20:37:00,
2013-03-05 13:42:00,37.9,-4.2,21.11,NW,316,12.8,12.8,16,0.00,,---,0.00,VWS V14.01,2013-03-05 20:42:00,
2013-03-05 13:48:00,37.6,-4.5,21.11,NW,320,10.5,10.5,16,0.00,,---,0.00,VWS V14.01,2013-03-05 20:48:00,
2013-03-05 13:54:00,37.6,-4.5,21.11,WNW,288,5.8,5.8,16,0.00,,---,0.00,VWS V14.01,2013-03-05 20:54:00,
2013-03-05 13:59:00,37.6,-4.5,21.11,NW,308,13.2,13.2,16,0.00,,---,0.00,VWS V14.01,2013-03-05 20:59:00,
2013-03-05 14:04:00,37.6,-4.5,21.11,NW,315,5.4,5.4,16,0.00,,---,0.00,VWS V14.01,2013-03-05 21:04:00,
2013-03-05 14:09:00,37.6,-4.5,21.11,NNW,328,10.1,10.1,16,0.00,,---,0.00,VWS V14.01,2013-03-05 21:09:00,
2013-03-05 14:15:00,37.8,-4.4,21.11,NW,312,8.1,8.1,16,0.00,,---,0.00,VWS V14.01,2013-03-05 21:15:00,
2013-03-05 14:20:00,38.1,-4.1,21.11,NW,306,10.5,12.8,16,0.00,,---,0.00,VWS V14.01,2013-03-05 21:20:00,
2013-03-05 14:26:00,38.3,-4.0,21.11,West,271,13.2,13.2,16,0.00,,---,0.00,VWS V14.01,2013-03-05 21:26:00,
2013-03-05 14:32:00,38.5,-3.8,21.11,NW,321,5.8,8.7,16,0.00,,---,0.00,VWS V14.01,2013-03-05 21:32:00,
2013-03-05 14:37:00,38.5,-3.8,21.11,NW,308,8.7,10.5,16,0.00,,---,0.00,VWS V14.01,2013-03-05 21:37:00,
2013-03-05 14:42:00,38.5,-3.8,21.11,NW,304,8.1,10.1,16,0.00,,---,0.00,VWS V14.01,2013-03-05 21:42:00,
2013-03-05 14:47:00,38.5,-3.8,21.11,NNW,332,8.1,8.1,16,0.00,,---,0.00,VWS V14.01,2013-03-05 21:47:00,
2013-03-05 14:52:00,38.5,-3.8,21.11,NNW,336,10.1,10.1,16,0.00,,---,0.00,VWS V14.01,2013-03-05 21:52:00,
2013-03-05 14:58:00,38.5,-3.8,21.11,NNW,336,10.1,10.1,16,0.00,,---,0.00,VWS V14.01,2013-03-05 21:58:00,
2013-03-05 15:04:00,38.5,-3.8,21.11,NW,324,6.3,8.3,16,0.00,,---,0.00,VWS V14.01,2013-03-05 22:04:00,
2013-03-05 15:09:00,38.5,-3.8,21.11,NW,324,0.0,3.1,16,0.00,,---,0.00,VWS V14.01,2013-03-05 22:09:00,
2013-03-05 15:15:00,38.5,-3.8,21.11,NW,324,9.6,10.5,16,0.00,,---,0.00,VWS V14.01,2013-03-05 22:15:00,
2013-03-05 15:20:00,38.8,-3.5,21.11,NW,315,7.6,7.6,16,0.00,,---,0.00,VWS V14.01,2013-03-05 22:20:00,
2013-03-05 15:26:00,38.7,-3.7,21.11,WNW,293,4.0,4.9,16,0.00,,---,0.00,VWS V14.01,2013-03-05 22:26:00,
2013-03-05 15:32:00,38.7,-3.7,21.11,WNW,296,5.4,5.4,16,0.00,,---,0.00,VWS V14.01,2013-03-05 22:32:00,
2013-03-05 15:37:00,38.8,-3.5,21.11,WNW,293,8.7,8.7,16,0.00,,---,0.00,VWS V14.01,2013-03-05 22:37:00,
2013-03-05 15:43:00,38.8,-3.5,21.11,WNW,299,8.7,8.7,16,0.00,,---,0.00,VWS V14.01,2013-03-05 22:43:00,
2013-03-05 15:48:00,38.5,-3.8,21.11,NW,314,10.5,10.5,16,0.00,,---,0.00,VWS V14.01,2013-03-05 22:48:00,
2013-03-05 15:54:00,38.5,-3.8,21.11,NW,313,12.8,12.8,16,0.00,,---,0.00,VWS V14.01,2013-03-05 22:54:00,
2013-03-05 15:59:00,38.7,-3.7,21.11,NNW,341,4.0,7.6,16,0.00,,---,0.00,VWS V14.01,2013-03-05 22:59:00,
2013-03-05 16:04:00,38.7,-3.7,21.11,WNW,295,8.1,10.1,16,0.00,,---,0.00,VWS V14.01,2013-03-05 23:04:00,
2013-03-05 16:10:00,38.5,-3.8,21.11,NNW,344,5.4,5.8,16,0.00,,---,0.00,VWS V14.01,2013-03-05 23:10:00,
2013-03-05 16:15:00,38.5,-3.8,21.11,NNW,345,3.1,3.1,16,0.00,,---,0.00,VWS V14.01,2013-03-05 23:15:00,
2013-03-05 16:21:00,38.3,-4.0,21.11,WNW,301,7.6,8.7,16,0.00,,---,0.00,VWS V14.01,2013-03-05 23:21:00,
2013-03-05 16:26:00,38.3,-4.0,21.11,NW,314,3.1,3.1,16,0.00,,---,0.00,VWS V14.01,2013-03-05 23:26:00,
2013-03-05 16:32:00,38.1,-4.1,21.11,WNW,295,10.1,10.1,16,0.00,,---,0.00,VWS V14.01,2013-03-05 23:32:00,
2013-03-05 16:38:00,38.1,-4.1,21.11,WNW,285,6.3,6.3,16,0.00,,---,0.00,VWS V14.01,2013-03-05 23:38:00,
2013-03-05 16:44:00,38.1,-4.1,21.11,WSW,252,4.9,4.9,16,0.00,,---,0.00,VWS V14.01,2013-03-05 23:44:00,
2013-03-05 16:49:00,37.9,-4.2,21.11,NW,313,5.4,8.1,16,0.00,,---,0.00,VWS V14.01,2013-03-05 23:49:00,
2013-03-05 16:55:00,37.9,-4.2,21.11,NW,314,5.4,5.4,16,0.00,,---,0.00,VWS V14.01,2013-03-05 23:55:00,
2013-03-05 17:01:00,37.8,-4.4,21.11,NW,312,6.3,6.3,16,0.00,,---,0.00,VWS V14.01,2013-03-06 00:01:00,
2013-03-05 17:07:00,37.4,-4.7,21.11,NW,318,4.0,4.0,16,0.00,,---,0.00,VWS V14.01,2013-03-06 00:07:00,
2013-03-05 17:12:00,37.2,-3.6,21.11,NW,320,3.6,5.4,17,0.00,,---,0.00,VWS V14.01,2013-03-06 00:12:00,
2013-03-05 17:18:00,36.7,-4.0,21.11,NW,320,2.2,2.2,17,0.00,,---,0.00,VWS V14.01,2013-03-06 00:18:00,
2013-03-05 17:24:00,36.3,-4.3,21.11,NW,320,0.0,0.0,17,0.00,,---,0.00,VWS V14.01,2013-03-06 00:24:00,
2013-03-05 17:29:00,36.0,-4.6,21.11,NW,320,0.0,0.0,17,0.00,,---,0.00,VWS V14.01,2013-03-06 00:29:00,
2013-03-05 17:35:00,35.4,-5.1,21.11,NW,321,5.8,5.8,17,0.00,,---,0.00,VWS V14.01,2013-03-06 00:35:00,
2013-03-05 17:40:00,34.9,-5.5,21.11,NW,321,4.0,4.0,17,0.00,,---,0.00,VWS V14.01,2013-03-06 00:40:00,
2013-03-05 17:45:00,34.2,-6.1,21.11,NNW,337,3.1,4.0,17,0.00,,---,0.00,VWS V14.01,2013-03-06 00:45:00,
2013-03-05 17:50:00,33.4,-5.5,21.11,NE,39,5.8,5.8,18,0.00,,---,0.00,VWS V14.01,2013-03-06 00:50:00,
2013-03-05 17:56:00,32.2,-6.6,21.11,NE,44,7.2,7.2,18,0.00,,---,0.00,VWS V14.01,2013-03-06 00:56:00,
2013-03-05 18:02:00,32.2,-4.4,21.11,NE,51,7.2,7.2,20,0.00,,---,0.00,VWS V14.01,2013-03-06 01:02:00,
2013-03-05 18:07:00,31.8,-4.7,21.11,NE,55,7.6,7.6,20,0.00,,---,0.00,VWS V14.01,2013-03-06 01:07:00,
2013-03-05 18:13:00,30.9,-5.4,21.11,NE,54,7.2,7.6,20,0.00,,---,0.00,VWS V14.01,2013-03-06 01:13:00,
2013-03-05 18:19:00,30.2,-6.0,21.11,NE,56,7.6,8.1,20,0.00,,---,0.00,VWS V14.01,2013-03-06 01:19:00,
2013-03-05 18:24:00,29.5,-3.7,21.11,ENE,65,8.3,8.3,23,0.00,,---,0.00,VWS V14.01,2013-03-06 01:24:00,
2013-03-05 18:30:00,28.4,-4.7,21.11,ENE,61,7.6,8.1,23,0.00,,---,0.00,VWS V14.01,2013-03-06 01:30:00,
2013-03-05 18:35:00,28.2,-2.2,21.11,ENE,62,7.6,7.6,26,0.00,,---,0.00,VWS V14.01,2013-03-06 01:35:00,
2013-03-05 18:41:00,28.0,-2.4,21.11,NE,51,8.1,8.1,26,0.00,,---,0.00,VWS V14.01,2013-03-06 01:41:00,
2013-03-05 18:46:00,28.2,-2.2,21.11,NE,56,8.1,8.1,26,0.00,,---,0.00,VWS V14.01,2013-03-06 01:46:00,
2013-03-05 18:52:00,28.4,-0.5,21.11,ENE,60,8.1,8.1,28,0.00,,---,0.00,VWS V14.01,2013-03-06 01:52:00,
2013-03-05 18:58:00,28.0,-0.9,21.11,ENE,61,8.3,8.3,28,0.00,,---,0.00,VWS V14.01,2013-03-06 01:58:00,
2013-03-05 19:03:00,27.9,-1.0,21.11,NE,54,7.2,7.2,28,0.00,,---,0.00,VWS V14.01,2013-03-06 02:03:00,
2013-03-05 19:09:00,27.7,-1.2,21.11,ENE,67,8.3,8.3,28,0.00,,---,0.00,VWS V14.01,2013-03-06 02:09:00,
2013-03-05 19:14:00,27.3,-1.5,21.11,ENE,62,8.7,9.2,28,0.00,,---,0.00,VWS V14.01,2013-03-06 02:14:00,
2013-03-05 19:20:00,27.1,-1.6,21.11,ENE,62,7.6,8.1,28,0.00,,---,0.00,VWS V14.01,2013-03-06 02:20:00,
2013-03-05 19:25:00,27.0,0.4,21.11,ENE,67,8.3,8.7,31,0.00,,---,0.00,VWS V14.01,2013-03-06 02:25:00,
2013-03-05 19:32:00,27.0,0.4,21.11,ENE,68,8.3,8.7,31,0.00,,---,0.00,VWS V14.01,2013-03-06 02:32:00,
2013-03-05 19:37:00,27.0,0.4,21.11,ENE,75,9.6,9.6,31,0.00,,---,0.00,VWS V14.01,2013-03-06 02:37:00,
2013-03-05 19:43:00,26.6,0.1,21.11,ENE,73,8.7,8.7,31,0.00,,---,0.00,VWS V14.01,2013-03-06 02:43:00,
2013-03-05 19:48:00,26.4,-0.1,21.11,ENE,70,9.2,9.2,31,0.00,,---,0.00,VWS V14.01,2013-03-06 02:48:00,
2013-03-05 19:54:00,26.4,-0.1,21.11,ENE,78,11.0,11.0,31,0.00,,---,0.00,VWS V14.01,2013-03-06 02:54:00,
2013-03-05 19:59:00,26.4,-0.1,21.11,ENE,58,9.6,10.1,31,0.00,,---,0.00,VWS V14.01,2013-03-06 02:59:00,
2013-03-05 20:04:00,26.6,0.7,21.11,ENE,78,10.1,10.1,32,0.00,,---,0.00,VWS V14.01,2013-03-06 03:04:00,
2013-03-05 20:09:00,26.6,0.1,21.11,East,82,11.0,11.0,31,0.00,,---,0.00,VWS V14.01,2013-03-06 03:09:00,
2013-03-05 20:15:00,26.6,0.7,21.11,ENE,68,8.7,8.7,32,0.00,,---,0.00,VWS V14.01,2013-03-06 03:15:00,
2013-03-05 20:20:00,26.4,0.6,21.11,East,87,11.9,11.9,32,0.00,,---,0.00,VWS V14.01,2013-03-06 03:20:00,
2013-03-05 20:26:00,26.2,0.4,21.11,ENE,57,10.5,11.0,32,0.00,,---,0.00,VWS V14.01,2013-03-06 03:26:00,
2013-03-05 20:32:00,26.1,0.2,21.11,ENE,78,11.4,11.9,32,0.00,,---,0.00,VWS V14.01,2013-03-06 03:32:00,
2013-03-05 20:37:00,26.1,0.2,21.11,ENE,69,10.1,10.1,32,0.00,,---,0.00,VWS V14.01,2013-03-06 03:37:00,
2013-03-05 20:43:00,25.9,0.1,21.11,ENE,62,10.5,10.5,32,0.00,,---,0.00,VWS V14.01,2013-03-06 03:43:00,
2013-03-05 20:48:00,25.7,-0.1,21.11,ENE,68,10.5,11.0,32,0.00,,---,0.00,VWS V14.01,2013-03-06 03:48:00,
2013-03-05 20:54:00,25.5,-0.2,21.11,ENE,75,11.0,11.0,32,0.00,,---,0.00,VWS V14.01,2013-03-06 03:54:00,
2013-03-05 20:59:00,25.3,-0.4,21.11,ENE,76,11.9,11.9,32,0.00,,---,0.00,VWS V14.01,2013-03-06 03:59:00,
2013-03-05 21:05:00,25.3,-0.4,21.11,ENE,68,10.5,11.9,32,0.00,,---,0.00,VWS V14.01,2013-03-06 04:05:00,
2013-03-05 21:10:00,24.8,-0.2,21.11,East,80,11.0,11.0,33,0.00,,---,0.00,VWS V14.01,2013-03-06 04:10:00,
2013-03-05 21:15:00,24.8,-0.2,21.11,ENE,67,10.5,11.0,33,0.00,,---,0.00,VWS V14.01,2013-03-06 04:15:00,
2013-03-05 21:21:00,24.6,-0.4,21.11,ENE,76,12.8,12.8,33,0.00,,---,0.00,VWS V14.01,2013-03-06 04:21:00,
2013-03-05 21:26:00,24.4,-0.5,21.11,ENE,72,11.0,11.0,33,0.00,,---,0.00,VWS V14.01,2013-03-06 04:26:00,
2013-03-05 21:31:00,24.4,-0.5,21.11,ENE,70,11.0,12.3,33,0.00,,---,0.00,VWS V14.01,2013-03-06 04:31:00,
2013-03-05 21:36:00,24.4,-0.5,21.11,ENE,73,11.0,11.9,33,0.00,,---,0.00,VWS V14.01,2013-03-06 04:36:00,
2013-03-05 21:42:00,24.4,-0.5,21.11,East,83,12.8,12.8,33,0.00,,---,0.00,VWS V14.01,2013-03-06 04:42:00,
2013-03-05 21:48:00,24.3,-0.7,21.11,East,93,13.2,13.2,33,0.00,,---,0.00,VWS V14.01,2013-03-06 04:48:00,
2013-03-05 21:54:00,24.1,-0.9,21.11,East,89,10.5,13.2,33,0.00,,---,0.00,VWS V14.01,2013-03-06 04:54:00,
2013-03-05 21:59:00,23.7,-1.2,21.11,East,88,10.1,10.1,33,0.00,,---,0.00,VWS V14.01,2013-03-06 04:59:00,
2013-03-05 22:00:00,23.7,-1.2,21.11,East,86,10.5,11.0,33,0.00,,---,0.00,VWS V14.01,2013-03-06 05:00:00,
2013-03-05 22:02:00,23.7,-1.2,21.11,East,87,12.8,12.8,33,0.00,,---,0.00,VWS V14.01,2013-03-06 05:02:00,
2013-03-05 22:04:00,23.5,-1.3,21.11,East,86,11.4,11.4,33,0.00,,---,0.00,VWS V14.01,2013-03-06 05:04:00,
2013-03-05 22:09:00,23.5,-1.3,21.11,East,87,11.0,11.0,33,0.00,,---,0.00,VWS V14.01,2013-03-06 05:09:00,
2013-03-05 22:11:00,23.5,-1.3,21.11,East,87,11.0,11.0,33,0.00,,---,0.00,VWS V14.01,2013-03-06 05:11:00,
2013-03-05 22:16:00,23.5,-1.3,21.11,East,92,10.1,10.5,33,0.00,,---,0.00,VWS V14.01,2013-03-06 05:16:00,
2013-03-05 22:22:00,23.2,-1.6,21.11,East,99,12.3,12.3,33,0.00,,---,0.00,VWS V14.01,2013-03-06 05:22:00,
2013-03-05 22:28:00,22.8,-1.3,21.11,East,82,9.2,9.2,34,0.00,,---,0.00,VWS V14.01,2013-03-06 05:28:00,
2013-03-05 22:33:00,22.8,-1.3,21.11,East,86,8.1,8.7,34,0.00,,---,0.00,VWS V14.01,2013-03-06 05:33:00,
2013-03-05 22:39:00,22.5,-1.6,21.11,ESE,116,9.6,9.6,34,0.00,,---,0.00,VWS V14.01,2013-03-06 05:39:00,
2013-03-05 22:44:00,22.1,-2.0,21.11,ESE,115,8.3,9.2,34,0.00,,---,0.00,VWS V14.01,2013-03-06 05:44:00,
2013-03-05 22:49:00,21.9,-2.1,21.11,SE,131,10.5,10.5,34,0.00,,---,0.00,VWS V14.01,2013-03-06 05:49:00,
2013-03-05 22:54:00,21.9,-2.1,21.11,SE,132,10.5,11.0,34,0.00,,---,0.00,VWS V14.01,2013-03-06 05:54:00,
2013-03-05 22:59:00,21.7,-1.7,21.11,SE,127,11.0,11.0,35,0.00,,---,0.00,VWS V14.01,2013-03-06 05:59:00,
2013-03-05 23:04:00,21.7,-1.1,21.11,ESE,121,10.1,10.5,36,0.00,,---,0.00,VWS V14.01,2013-03-06 06:04:00,
2013-03-05 23:10:00,21.7,-1.1,21.11,ESE,120,10.1,10.1,36,0.00,,---,0.00,VWS V14.01,2013-03-06 06:10:00,
2013-03-05 23:15:00,21.2,-1.6,21.11,ESE,106,8.7,8.7,36,0.00,,---,0.00,VWS V14.01,2013-03-06 06:15:00,
2013-03-05 23:20:00,21.0,-1.7,21.11,ESE,115,10.5,10.5,36,0.00,,---,0.00,VWS V14.01,2013-03-06 06:20:00,
2013-03-05 23:25:00,21.0,-1.7,21.11,East,90,7.2,7.6,36,0.00,,---,0.00,VWS V14.01,2013-03-06 06:25:00,
2013-03-05 23:31:00,20.7,-2.1,21.11,ESE,113,11.0,11.0,36,0.00,,---,0.00,VWS V14.01,2013-03-06 06:31:00,
2013-03-05 23:36:00,20.7,-2.1,21.11,ESE,106,11.0,11.0,36,0.00,,---,0.00,VWS V14.01,2013-03-06 06:36:00,
2013-03-05 23:42:00,20.8,-1.3,21.11,ESE,108,10.5,12.8,37,0.00,,---,0.00,VWS V14.01,2013-03-06 06:42:00,
2013-03-05 23:48:00,21.2,-1.0,21.11,ESE,104,10.5,11.0,37,0.00,,---,0.00,VWS V14.01,2013-03-06 06:48:00,
2013-03-05 23:54:00,21.2,-1.0,21.11,ESE,115,11.9,11.9,37,0.00,,---,0.00,VWS V14.01,2013-03-06 06:54:00,